Stations météo

Publicité
Paris/Charles De Gaulle, France (7157): Température de l'air & dewpoint: 14.07.2018 01:00:00 - 20.07.2018 01:00:00 (CEST)Paris/Charles De Gaulle, France (7157): Température de l'air 5cm: 14.07.2018 01:00:00 - 20.07.2018 01:00:00 (CEST)Paris/Charles De Gaulle, France (7157): Température de l'air -20cm & Température de l'air -100cm: 14.07.2018 01:00:00 - 20.07.2018 01:00:00 (CEST)Paris/Charles De Gaulle, France (7157): Vitesse du vent & gusts: 14.07.2018 01:00:00 - 20.07.2018 01:00:00 (CEST)Paris/Charles De Gaulle, France (7157): Direction du vent: 14.07.2018 01:00:00 - 20.07.2018 01:00:00 (CEST)Paris/Charles De Gaulle, France (7157): reduced air pressure: 14.07.2018 01:00:00 - 20.07.2018 01:00:00 (CEST)Paris/Charles De Gaulle, France (7157): visibility: 14.07.2018 01:00:00 - 20.07.2018 01:00:00 (CEST)Paris/Charles De Gaulle, France (7157): Ensoleillement: 14.07.2018 01:00:00 - 20.07.2018 01:00:00 (CEST)Paris/Charles De Gaulle, France (7157): Quantités de précipitations: 14.07.2018 01:00:00 - 20.07.2018 01:00:00 (CEST)
Date & Time tt [°C] td [°C] tt 5cm [°C] tt -20cm [°C] tt -100cm [°C] ff [km/h] ff [knt] fx [km/h] fx [knt] dd ppp [hPa] vv [km] sd [min] rr [mm]
20.07.2018 01:00:00 - - - - - - - - - - - - - -
20.07.2018 00:00:00 23,0 9,7 21,5 24,8 20,2 17 9 29 16 ENE 1015,2 30 0 0,0
19.07.2018 23:00:00 22,8 10,6 21,8 24,9 20,1 15 8 25 13 NE 1015,8 30 0 0,0
19.07.2018 22:00:00 24,7 10,2 23,8 25,0 20,2 16 8 26 14 ENE 1015,3 30 0 0,0
19.07.2018 21:00:00 26,1 10,3 25,7 24,9 20,1 16 8 27 15 ENE 1015,1 30 0 0,0
19.07.2018 20:00:00 27,3 10,1 27,3 24,8 20,1 19 10 34 18 NE 1015,1 47 16 0,0
19.07.2018 19:00:00 28,8 10,0 31,2 24,6 20,1 16 9 38 21 NE 1014,9 30 53 0,0
19.07.2018 18:00:00 28,8 9,0 31,2 24,3 20,2 21 12 33 18 NE 1015,3 30 32 0,0
19.07.2018 17:00:00 28,9 9,1 31,8 23,9 20,2 14 7 31 17 NNE 1015,9 30 11 0,0
19.07.2018 16:00:00 29,7 8,7 31,9 23,5 20,1 14 7 29 16 NNE 1016,3 30 33 0,0
19.07.2018 15:00:00 29,5 9,1 31,4 23,1 20,1 8 5 25 14 ENE 1016,5 30 28 0,0
19.07.2018 14:00:00 29,3 8,9 35,0 22,7 20,1 9 5 26 14 E 1016,9 30 58 0,0
19.07.2018 13:00:00 28,3 9,1 29,2 22,4 20,1 13 7 32 17 ENE 1017,3 30 57 0,0
19.07.2018 12:00:00 26,8 9,2 27,4 22,3 20,1 17 9 33 18 ENE 1017,4 30 45 0,0
19.07.2018 11:00:00 25,7 9,5 27,3 22,3 20,1 19 11 29 16 E 1017,6 30 24 0,0
19.07.2018 10:00:00 25,0 10,1 25,4 22,4 20,1 18 10 25 14 E 1017,7 30 55 0,0
19.07.2018 09:00:00 22,8 10,6 22,3 22,5 20,1 12 7 27 14 ENE 1017,8 25 58 0,0
19.07.2018 08:00:00 20,7 10,8 18,7 22,6 20,1 16 9 26 14 E 1017,7 25 60 0,0
19.07.2018 07:00:00 18,3 10,9 15,3 22,9 20,1 16 8 26 14 ENE 1018,0 30 22 0,0
19.07.2018 06:00:00 16,1 10,4 15,2 23,1 20,1 13 7 26 14 NE 1017,9 30 0 0,0
19.07.2018 05:00:00 16,7 10,3 15,9 23,3 20,1 11 6 22 12 NNE 1018,1 30 0 0,0
19.07.2018 04:00:00 17,1 10,0 16,3 23,6 20,1 12 7 17 9 NNE 1018,1 30 0 0,0
19.07.2018 03:00:00 17,3 10,2 16,1 23,8 20,1 11 6 14 8 NNE 1018,2 30 0 0,0
19.07.2018 02:00:00 18,3 10,4 17,2 24,0 20,1 11 6 15 8 NNE 1018,4 30 0 0,0
19.07.2018 01:00:00 19,2 10,2 18,1 24,2 20,1 14 8 26 14 N 1018,2 30 0 0,0
19.07.2018 00:00:00 20,3 10,1 19,3 24,4 20,1 16 8 28 15 NE 1017,8 30 0 0,0
18.07.2018 23:00:00 21,2 10,7 20,3 24,6 20,1 13 7 27 15 NE 1017,4 30 0 0,0
18.07.2018 22:00:00 23,0 10,8 22,0 24,6 20,1 13 7 24 13 NE 1016,9 30 0 0,0
18.07.2018 21:00:00 25,1 10,5 24,7 24,6 20,1 13 7 45 24 NNE 1016,6 30 57 0,0
18.07.2018 20:00:00 26,6 10,3 27,6 24,4 20,1 15 8 35 19 NNE 1016,2 30 60 0,0
18.07.2018 19:00:00 27,3 10,5 27,5 24,2 20,1 15 8 31 17 NNE 1016,2 30 48 0,0
18.07.2018 18:00:00 26,6 10,3 28,0 24,0 20,1 20 11 30 16 NE 1016,5 38 37 0,0
18.07.2018 17:00:00 27,1 10,7 28,8 23,7 20,1 16 9 33 18 NE 1016,7 30 28 0,0
18.07.2018 16:00:00 27,0 10,2 28,7 23,4 20,1 15 8 25 13 ENE 1017,0 30 22 0,0
18.07.2018 15:00:00 25,8 10,4 28,4 23,1 20,1 13 7 34 18 NE 1017,4 30 18 0,0
18.07.2018 14:00:00 25,5 10,5 28,5 22,7 20,1 12 7 29 15 NE 1017,7 30 11 0,0
18.07.2018 13:00:00 25,6 10,6 30,6 22,4 20,1 14 8 33 18 NE 1018,1 30 60 0,0
18.07.2018 12:00:00 24,4 9,9 29,8 22,3 20,0 13 7 31 17 ENE 1018,4 30 60 0,0
18.07.2018 11:00:00 23,3 9,7 27,8 22,3 20,0 14 8 28 15 NE 1018,8 30 60 0,0
18.07.2018 10:00:00 21,8 10,6 25,0 22,4 20,1 13 7 22 12 NE 1019,0 30 60 0,0
18.07.2018 09:00:00 19,9 10,3 20,1 22,5 20,1 12 7 24 13 NE 1019,1 30 43 0,0
18.07.2018 08:00:00 17,9 10,3 17,0 22,7 20,0 10 6 25 13 NE 1019,0 30 21 0,0
18.07.2018 07:00:00 17,1 9,8 15,3 22,9 20,0 9 5 25 14 N 1019,0 20 7 0,0
18.07.2018 06:00:00 15,9 9,6 15,1 23,1 20,0 10 5 26 14 NNE 1018,9 20 0 0,0
18.07.2018 05:00:00 16,5 9,2 15,4 23,4 20,0 7 4 12 6 NNE 1018,9 20 0 0,0
18.07.2018 04:00:00 16,4 8,9 15,1 23,6 20,0 6 4 10 6 ENE 1019,0 51 0 0,0
18.07.2018 03:00:00 17,3 8,7 16,6 23,8 20,0 8 5 14 8 NNE 1019,1 20 0 0,0
18.07.2018 02:00:00 17,9 9,3 16,7 24,1 20,0 11 6 16 9 N 1019,0 20 0 0,0
18.07.2018 01:00:00 17,7 9,1 16,8 24,3 20,0 12 7 14 8 NNE 1019,0 20 0 0,0
18.07.2018 00:00:00 18,2 9,3 17,4 24,5 20,0 10 6 20 11 NNE 1018,9 20 0 0,0
17.07.2018 23:00:00 19,9 10,0 19,0 24,6 20,0 13 7 19 10 NNE 1018,5 20 0 0,0
17.07.2018 22:00:00 21,9 10,1 20,6 24,7 20,0 9 5 16 8 N 1017,8 20 0 0,0
17.07.2018 21:00:00 23,6 10,3 23,4 24,7 20,0 12 6 26 14 NNW 1017,4 36 38 0,0
17.07.2018 20:00:00 25,2 10,6 26,3 24,5 20,0 14 7 23 12 N 1017,0 30 31 0,0
17.07.2018 19:00:00 26,0 10,6 26,9 24,3 20,0 9 5 24 13 W 1016,8 30 45 0,0
17.07.2018 18:00:00 24,9 10,4 27,4 24,0 20,0 15 8 32 17 NNW 1017,1 30 43 0,0
17.07.2018 17:00:00 26,5 11,4 28,9 23,8 20,0 11 6 30 16 NW 1017,0 30 30 0,0
17.07.2018 16:00:00 25,1 12,0 28,6 23,4 20,0 15 8 30 16 WNW 1017,5 30 35 0,0
17.07.2018 15:00:00 25,3 11,8 28,4 23,1 20,0 14 8 27 15 W 1017,7 30 30 0,0
17.07.2018 14:00:00 24,2 12,5 28,4 22,9 20,0 13 7 23 12 NW 1017,9 46 17 0,0
17.07.2018 13:00:00 23,6 12,6 28,2 22,7 20,0 14 7 32 17 WNW 1018,0 30 29 0,0
17.07.2018 12:00:00 22,7 13,7 28,3 22,5 20,0 12 7 23 12 WNW 1018,1 30 45 0,0
17.07.2018 11:00:00 22,1 13,2 27,1 22,5 20,0 16 8 24 13 WNW 1017,9 30 41 0,0
17.07.2018 10:00:00 21,0 13,7 23,8 22,6 20,0 16 9 24 13 WNW 1017,8 30 48 0,0
17.07.2018 09:00:00 19,5 13,4 22,1 22,7 19,9 12 7 23 12 WNW 1017,3 30 47 0,0
17.07.2018 08:00:00 18,0 13,3 18,6 22,9 19,9 13 7 24 13 NW 1017,0 30 22 0,0
17.07.2018 07:00:00 17,6 12,7 17,1 23,1 19,9 14 7 19 10 WNW 1016,8 45 2 0,0
17.07.2018 06:00:00 18,1 11,2 16,3 23,3 19,9 11 6 16 9 WNW 1016,4 30 0 0,0
17.07.2018 05:00:00 18,3 10,4 16,9 23,4 19,9 7 4 10 5 NW 1016,0 54 0 0,0
17.07.2018 04:00:00 19,2 10,7 18,4 23,6 19,9 10 6 13 7 WNW 1015,8 30 0 0,0
17.07.2018 03:00:00 19,9 9,7 18,7 23,9 19,9 6 3 7 4 W 1015,6 38 0 0,0
17.07.2018 02:00:00 20,2 9,7 18,7 24,1 19,9 5 3 11 6 NW 1015,7 30 0 0,0
17.07.2018 01:00:00 20,6 9,5 19,3 24,3 19,9 9 5 12 7 NNW 1015,4 30 0 0,0
17.07.2018 00:00:00 21,5 9,4 19,7 24,4 19,9 9 5 21 12 N 1015,1 30 0 0,0
16.07.2018 23:00:00 21,9 9,8 20,5 24,6 19,9 14 7 20 11 N 1015,0 57 0 0,0
16.07.2018 22:00:00 24,0 10,3 22,8 24,6 19,9 13 7 36 19 N 1014,0 56 0 0,0
16.07.2018 21:00:00 26,3 11,6 25,9 24,5 19,9 18 10 29 16 N 1013,1 22 31 0,0
16.07.2018 20:00:00 28,0 10,7 28,1 24,3 19,9 11 6 25 13 NNW 1012,2 36 46 0,0
16.07.2018 19:00:00 29,8 9,8 33,4 24,0 19,9 15 8 24 13 WNW 1011,7 20 60 0,0
16.07.2018 18:00:00 30,5 9,9 35,3 23,7 19,9 14 8 23 13 NW 1011,7 20 60 0,0
16.07.2018 17:00:00 29,5 9,6 35,6 23,4 19,9 14 7 23 12 NNW 1011,7 20 60 0,0
16.07.2018 16:00:00 28,8 11,8 34,3 23,1 19,9 15 8 25 14 NNW 1012,3 20 51 0,0
16.07.2018 15:00:00 26,7 11,6 29,7 23,0 19,8 16 9 27 15 NNW 1012,8 20 51 0,0
16.07.2018 14:00:00 23,4 13,3 23,9 23,0 19,9 10 5 18 10 NNW 1013,4 20 0 0,0
16.07.2018 13:00:00 21,4 12,8 23,5 22,8 19,9 13 7 19 11 NW 1013,6 20 0 0,0
16.07.2018 12:00:00 22,7 12,6 26,0 22,7 19,8 8 4 19 11 N 1013,5 20 0 0,0
16.07.2018 11:00:00 21,5 13,1 24,9 22,7 19,8 14 8 23 12 N 1013,6 20 3 0,0
16.07.2018 10:00:00 24,5 12,8 29,3 22,8 19,9 7 4 16 9 NNW 1013,2 22 58 0,0
16.07.2018 09:00:00 22,2 13,0 23,5 22,9 19,8 5 3 17 9 NNE 1013,2 20 60 0,0
16.07.2018 08:00:00 19,0 13,0 18,0 23,1 19,8 6 3 16 8 N 1013,6 20 46 0,0
16.07.2018 07:00:00 17,3 12,4 16,6 23,3 19,8 11 6 19 11 N 1013,6 20 6 0,0
16.07.2018 06:00:00 17,4 12,5 16,7 23,5 19,8 8 5 16 9 NNW 1013,6 20 0 0,0
16.07.2018 05:00:00 17,7 12,4 16,7 23,8 19,8 11 6 15 8 NNE 1013,4 25 0 0,0
16.07.2018 04:00:00 18,4 12,4 16,9 24,0 19,8 6 4 15 8 N 1013,8 25 0 0,0
16.07.2018 03:00:00 19,4 12,4 18,4 24,2 19,8 12 6 19 10 N 1013,9 25 0 0,0
16.07.2018 02:00:00 20,5 12,5 19,5 24,4 19,8 14 7 23 13 NNE 1013,9 25 0 0,0
16.07.2018 01:00:00 21,3 12,2 20,3 24,6 19,8 13 7 21 11 NNE 1014,2 25 0 0,0
16.07.2018 00:00:00 22,7 12,3 21,2 24,8 19,8 8 5 27 15 N 1014,2 25 0 0,0
15.07.2018 23:00:00 24,7 11,3 22,5 24,9 19,8 7 4 23 12 N 1014,1 25 0 0,0
15.07.2018 22:00:00 25,4 11,2 23,7 25,0 19,8 12 7 21 11 NW 1013,7 25 0 0,0
15.07.2018 21:00:00 27,3 10,1 26,6 25,0 19,8 10 5 22 12 NE 1013,2 25 30 0,0
15.07.2018 20:00:00 29,2 8,8 29,9 24,9 19,8 11 6 29 16 NE 1012,9 33 60 0,0
15.07.2018 19:00:00 30,5 9,4 32,6 24,6 19,8 12 6 31 17 NNE 1012,6 25 55 0,0
15.07.2018 18:00:00 29,8 9,3 30,4 24,2 19,8 9 5 28 15 NNE 1012,8 25 35 0,0
15.07.2018 17:00:00 29,7 8,7 31,8 23,9 19,8 5 3 25 14 NE 1013,2 25 43 0,0
15.07.2018 16:00:00 30,6 10,0 33,3 23,5 19,8 5 3 33 18 ENE 1013,7 25 54 0,0
15.07.2018 15:00:00 28,8 11,4 30,8 23,1 19,8 9 5 27 15 ENE 1014,3 25 35 0,0
15.07.2018 14:00:00 29,1 11,6 31,0 22,7 19,8 10 6 32 18 E 1014,7 25 34 0,0
15.07.2018 13:00:00 27,8 11,4 30,9 22,4 19,8 9 5 29 15 E 1015,1 25 46 0,0
15.07.2018 12:00:00 27,8 13,3 34,1 22,2 19,7 13 7 32 17 NNE 1015,5 25 60 0,0
15.07.2018 11:00:00 25,7 14,5 29,1 22,3 19,8 9 5 23 12 N 1016,0 25 60 0,0
15.07.2018 10:00:00 22,2 14,3 20,4 22,4 19,7 8 5 27 15 NNE 1016,1 25 18 0,0
15.07.2018 09:00:00 18,6 13,2 18,4 22,5 19,7 10 5 27 14 N 1016,2 25 0 0,0
15.07.2018 08:00:00 17,9 12,8 17,7 22,7 19,7 13 7 26 14 NNE 1016,2 25 0 0,0
15.07.2018 07:00:00 17,8 12,3 17,1 22,9 19,7 5 3 21 11 WSW 1016,5 25 18 0,0
15.07.2018 06:00:00 17,6 12,3 17,2 23,1 19,7 10 6 24 13 N 1016,1 25 0 0,0
15.07.2018 05:00:00 18,3 12,1 17,3 23,3 19,7 8 4 18 10 N 1016,4 25 0 0,0
15.07.2018 04:00:00 19,4 11,9 18,1 23,5 19,7 5 3 18 10 NNW 1016,7 30 0 0,0
15.07.2018 03:00:00 19,0 12,3 18,4 23,7 19,7 15 8 22 12 N 1016,5 30 0 0,0
15.07.2018 02:00:00 19,9 12,4 19,1 23,9 19,7 14 7 22 12 N 1016,8 20 0 0,0
15.07.2018 01:00:00 20,8 12,5 19,8 24,1 19,7 12 6 21 11 NNE 1017,1 30 0 0,0
15.07.2018 00:00:00 22,7 12,0 22,1 24,3 19,7 11 6 31 17 N 1017,0 30 0 0,0
14.07.2018 23:00:00 23,5 12,8 22,6 24,4 19,7 11 6 28 15 NNE 1016,8 20 0 0,0
14.07.2018 22:00:00 25,1 12,7 24,2 24,5 19,7 9 5 24 13 NNE 1016,4 20 0 0,0
14.07.2018 21:00:00 26,7 12,7 26,3 24,4 19,7 11 6 21 11 NE 1016,2 20 56 0,0
14.07.2018 20:00:00 27,9 12,7 28,8 24,4 19,7 10 5 22 12 NE 1016,1 20 55 0,0
14.07.2018 19:00:00 28,1 12,4 28,9 24,2 19,7 12 6 24 13 NE 1016,2 20 17 0,0
14.07.2018 18:00:00 28,2 12,1 29,6 24,0 19,7 11 6 26 14 NNE 1016,6 38 18 0,0
14.07.2018 17:00:00 28,3 12,2 29,8 23,6 19,7 14 8 44 24 NNE 1017,0 25 27 0,0
14.07.2018 16:00:00 28,1 12,4 30,9 23,1 19,7 10 5 25 13 NNE 1017,2 8 29 0,0
14.07.2018 15:00:00 29,1 13,3 32,1 22,7 19,7 9 5 24 13 N 1017,8 25 43 0,0
14.07.2018 14:00:00 28,0 13,5 30,9 22,3 19,7 6 4 26 14 NNE 1018,3 25 54 0,0
14.07.2018 13:00:00 27,2 12,8 33,0 22,1 19,7 14 8 30 16 ENE 1018,8 25 60 0,0
14.07.2018 12:00:00 26,2 13,7 30,8 21,9 19,7 14 8 35 19 NNE 1019,2 24 58 0,0
14.07.2018 11:00:00 24,5 14,6 29,4 21,9 19,7 11 6 23 13 NNE 1019,6 18 60 0,0
14.07.2018 10:00:00 22,6 14,9 26,0 22,0 19,7 11 6 24 13 NNE 1019,5 12 60 0,0
14.07.2018 09:00:00 20,4 14,7 21,2 22,2 19,7 11 6 32 17 NNE 1019,9 11 60 0,0
14.07.2018 08:00:00 18,2 13,9 17,2 22,3 19,7 16 8 38 20 NNE 1019,7 12 60 0,0
14.07.2018 07:00:00 16,2 13,3 15,4 22,5 19,7 16 9 39 21 NNE 1019,6 15 18 0,0
14.07.2018 06:00:00 16,1 13,4 15,6 22,7 19,7 14 8 31 17 N 1019,9 15 0 0,0
14.07.2018 05:00:00 16,7 13,8 16,3 22,9 19,7 13 7 26 14 N 1020,1 15 0 0,0
14.07.2018 04:00:00 17,1 14,0 16,6 23,1 19,7 12 6 23 13 NNE 1019,9 13 0 0,0
14.07.2018 03:00:00 17,7 14,0 16,9 23,3 19,7 14 8 29 16 N 1019,8 25 0 0,0
14.07.2018 02:00:00 18,4 14,1 17,9 23,5 19,7 13 7 27 15 NNE 1020,2 25 0 0,0
14.07.2018 01:00:00 19,3 14,8 18,7 23,7 19,7 13 7 26 14 N 1020,2 25 0 0,0

tt = Température de l'air
td = dewpoint
tt 5cm = Température de l'air 5cm
tt -20cm = Température de l'air -20cm
tt -100cm = Température de l'air -100cm
ff = Vitesse du vent
fx = gusts
dd = Direction du vent
ppp = reduced air pressure
vv = visibility
sd = Ensoleillement
rr = Quantités de précipitations

stations d'obs. à proximité